Weather History for Nairobi Wilson, Kenya

Change the Weather History Date:

Thursday, November 15, 2012

  Actual Average Record
Temperature  
Mean Temperature 70 °F -  
Max Temperature 78 °F 72 °F 82 °F (2013)
Min Temperature 62 °F 60 °F 60 °F (2004)
Cooling Degree Days 5    
Growing Degree Days 20 (Base 50)    
Moisture  
Dew Point 56 °F    
Average Humidity 64    
Maximum Humidity 88    
Minimum Humidity 39    
Precipitation  
Precipitation 0.00 in - - ()
Sea Level Pressure  
Sea Level Pressure 30.12 in    
Wind  
Wind Speed 6 mph ()    
Max Wind Speed 17 mph    
Max Gust Speed -    
Visibility 6.2 miles    
Events      
Averages and records for this station are not official NWS values.
T = Trace of Precipitation, MM = Missing Value Source: Averaged Metar Reports

Daily Weather History Graph

Daily Weather History Graph

Search for Another Location

Airport:

Trip Planner

Search our weather history database for the weather conditions in past years. The results will help you decide how hot, cold, wet, or windy it might be!

Date:

Astronomy

Nov. 15, 2012 Rise Set
Actual Time 6:12 AM EAT 6:22 PM EAT
Civil Twilight 5:50 AM EAT 6:44 PM EAT
Nautical Twilight 5:24 AM EAT 7:09 PM EAT
Astronomical Twilight 4:59 AM EAT 7:35 PM EAT
Moon 7:31 AM EAT (11/15) 8:05 PM EAT (11/15)
Length of Visible Light 12h 54m
Length of Day
12h 10m
Waxing Crescent, 3% of the Moon is Illuminated
Nov 15
Waxing Crescent
Nov 20
First Quarter
Nov 28
Full
Dec 6
Last Quarter
Dec 13
New

Hourly Weather History & Observations

Time (EAT) Temp. Dew Point Humidity Pressure Visibility Wind Dir Wind Speed Gust Speed Precip Events Conditions
12:00 AM 66.2 °F 57.2 °F 73% 30.15 in 6.2 mi ENE 4.6 mph - N/A   Mostly Cloudy
1:00 AM 64.4 °F 59.0 °F 83% 30.15 in 6.2 mi ENE 3.5 mph - N/A   Mostly Cloudy
2:00 AM 64.4 °F 59.0 °F 83% 30.12 in 6.2 mi Calm Calm - N/A   Mostly Cloudy
3:00 AM 64.4 °F 59.0 °F 83% 30.12 in 6.2 mi Calm Calm - N/A   Mostly Cloudy
4:00 AM 62.6 °F 57.2 °F 82% 30.12 in 6.2 mi NNE 9.2 mph - N/A   Partly Cloudy
5:00 AM 62.6 °F 59.0 °F 88% 30.12 in 6.2 mi NE 5.8 mph - N/A   Partly Cloudy
6:00 AM 62.6 °F 59.0 °F 88% 30.15 in 6.2 mi NNE 5.8 mph - N/A   Mostly Cloudy
7:00 AM 62.6 °F 59.0 °F 88% 30.15 in 6.2 mi ENE 4.6 mph - N/A   Mostly Cloudy
8:00 AM 64.4 °F 59.0 °F 83% 30.15 in 6.2 mi ENE 4.6 mph - N/A   Scattered Clouds
9:00 AM 68.0 °F 59.0 °F 73% 30.18 in 6.2 mi East 11.5 mph - N/A   Mostly Cloudy
10:00 AM 71.6 °F 59.0 °F 64% 30.18 in 6.2 mi ENE 3.5 mph - N/A   Mostly Cloudy
11:00 AM 71.6 °F 55.4 °F 57% 30.21 in 6.2 mi East 6.9 mph - N/A   Mostly Cloudy
12:00 PM 75.2 °F 57.2 °F 53% 30.12 in 6.2 mi ENE 6.9 mph - N/A   Mostly Cloudy
1:00 PM 77.0 °F 55.4 °F 47% 30.09 in 6.2 mi East 4.6 mph - N/A   Mostly Cloudy
2:00 PM 78.8 °F 57.2 °F 47% 30.06 in 6.2 mi ESE 5.8 mph - N/A   Mostly Cloudy
4:00 PM 78.8 °F 51.8 °F 39% 30.04 in 6.2 mi ENE 11.5 mph - N/A   Mostly Cloudy
5:00 PM 78.8 °F 51.8 °F 39% 30.04 in 6.2 mi East 17.3 mph - N/A   Mostly Cloudy
6:00 PM 77.0 °F 53.6 °F 44% 30.06 in 6.2 mi East 16.1 mph - N/A   Mostly Cloudy
7:00 PM 75.2 °F 51.8 °F 44% 3.48 in 6.2 mi East 15.0 mph - N/A   Mostly Cloudy
8:00 PM 73.4 °F 51.8 °F 47% 30.06 in 6.2 mi East 11.5 mph - N/A   Scattered Clouds
9:00 PM 71.6 °F 51.8 °F 50% 30.09 in 6.2 mi East 11.5 mph - N/A   Partly Cloudy
10:00 PM 69.8 °F 55.4 °F 60% 30.12 in - ENE 5.8 mph - N/A   Clear
11:00 PM 68.0 °F 57.2 °F 68% 30.12 in 6.2 mi NE 6.9 mph - N/A   Mostly Cloudy